Weather History for 94578 - December, 2013

Change the Weather History Date:

Monday, December 30, 2013

  Actual Average Record
Temperature  
Mean Temperature 76 °F -  
Max Temperature 82 °F 85 °F - ()
Min Temperature 71 °F 70 °F - ()
Cooling Degree Days 12    
Growing Degree Days 26 (Base 50)    
Moisture  
Dew Point 65 °F    
Average Humidity 65    
Maximum Humidity 78    
Minimum Humidity 44    
Precipitation  
Precipitation 0.00 in 0.22 in - ()
Sea Level Pressure  
Sea Level Pressure 29.86 in    
Wind  
Wind Speed 10 mph ()    
Max Wind Speed 16 mph    
Max Gust Speed -    
Visibility 6.8 miles    
Events Rain    
T = Trace of Precipitation, MM = Missing Value Source: Averaged Metar Reports

Daily Weather History Graph

Daily Weather History Graph

Search for Another Location

Airport or City:

Trip Planner

Search our weather history database for the weather conditions in past years. The results will help you decide how hot, cold, wet, or windy it might be!

Date:

Astronomy

Dec. 30, 2013 Rise Set
Actual Time 4:54 AM AEST 6:45 PM AEST
Civil Twilight 4:27 AM AEST 7:11 PM AEST
Nautical Twilight 3:55 AM AEST 7:43 PM AEST
Astronomical Twilight 3:22 AM AEST 8:17 PM AEST
Moon 2:27 AM AEST (12/30) 4:18 PM AEST (12/30)
Length of Visible Light 14h 44m
Length of Day
13h 51m
Waning Crescent, 8% of the Moon is Illuminated
Dec 30
Waning Crescent
Jan 1
New
Jan 8
First Quarter
Jan 16
Full
Jan 24
Last Quarter

Hourly Weather History & Observations

Time (AEST) Temp. Heat Index Dew Point Humidity Pressure Visibility Wind Dir Wind Speed Gust Speed Precip Events Conditions
12:00 AM 75 °F - 65 °F 64% 29.86 in 7 mi SE 12.7 mph - -   Smoke
12:00 AM 75.2 °F - 64.4 °F 69% 29.86 in 6.2 mi SE 12.7 mph - N/A   Partly Cloudy
12:30 AM 75.2 °F - 64.4 °F 69% 29.86 in 6.2 mi SE 11.5 mph - N/A   Scattered Clouds
1:00 AM 74 °F - 64 °F 63% 29.87 in - SE 10.4 mph - -  
1:00 AM 73.4 °F - 64.4 °F 73% 29.86 in 6.2 mi SE 10.4 mph - N/A   Scattered Clouds
1:30 AM 73.4 °F - 64.4 °F 73% 29.86 in - SE 10.4 mph - N/A   Clear
2:00 AM 73.4 °F - 62.6 °F 69% 29.83 in - SE 10.4 mph - N/A   Clear
2:30 AM 73.4 °F - 62.6 °F 69% 29.86 in - SSE 10.4 mph - N/A   Clear
3:00 AM 73 °F - 62 °F 61% 29.87 in 9 mi SE 9.2 mph - -   Smoke
3:00 AM 73.4 °F - 62.6 °F 69% 29.86 in - SE 9.2 mph - N/A   Clear
3:30 AM 73.4 °F - 62.6 °F 69% 29.86 in - SSE 10.4 mph - N/A   Clear
4:00 AM 72 °F - 62 °F 63% 29.87 in - SSE 8.1 mph - -  
4:00 AM 71.6 °F - 62.6 °F 73% 29.86 in - SSE 8.1 mph - N/A   Clear
4:30 AM 71.6 °F - 62.6 °F 73% 29.86 in - SSE 9.2 mph - N/A   Clear
5:00 AM 71.6 °F - 60.8 °F 69% 29.86 in - SSE 11.5 mph - N/A   Clear
5:30 AM 71.6 °F - 60.8 °F 69% 29.86 in - South 10.4 mph - N/A   Clear
6:00 AM 73 °F - 61 °F 58% 29.89 in 10 mi SSE 10.4 mph - -   Smoke
6:00 AM 73.4 °F - 60.8 °F 65% 29.89 in 6.2 mi SSE 10.4 mph - N/A   Partly Cloudy
6:30 AM 73.4 °F - 62.6 °F 69% 29.89 in 6.2 mi SSE 9.2 mph - N/A   Partly Cloudy
7:00 AM 75 °F - 62 °F 55% 29.90 in - SSE 8.1 mph - -  
7:00 AM 75.2 °F - 62.6 °F 65% 29.89 in 6.2 mi SSE 8.1 mph - N/A   Scattered Clouds
7:30 AM 77.0 °F - 62.6 °F 61% 29.89 in 6.2 mi SE 9.2 mph - N/A   Mostly Cloudy
8:00 AM 77.0 °F - 62.6 °F 61% 29.89 in 6.2 mi SE 10.4 mph - N/A   Mostly Cloudy
8:30 AM 78.8 °F - 62.6 °F 57% 29.89 in 6.2 mi SE 8.1 mph - N/A   Mostly Cloudy
9:00 AM 79 °F - 63 °F 49% 29.91 in 9 mi ESE 9.2 mph - -   Smoke
9:00 AM 78.8 °F - 62.6 °F 57% 29.89 in 6.2 mi ESE 9.2 mph - N/A   Mostly Cloudy
9:30 AM 78.8 °F - 64.4 °F 61% 29.89 in 6.2 mi ESE 10.4 mph - N/A   Mostly Cloudy
10:00 AM 80 °F - 64 °F 48% 29.91 in - ESE 11.5 mph - -  
10:00 AM 80.6 °F 82.3 °F 64.4 °F 58% 29.89 in 6.2 mi ESE 11.5 mph - N/A   Mostly Cloudy
10:30 AM 80.6 °F 82.3 °F 64.4 °F 58% 29.89 in 6.2 mi East 10.4 mph - N/A   Mostly Cloudy
11:00 AM 80.6 °F 82.3 °F 64.4 °F 58% 29.89 in 6.2 mi East 11.5 mph - N/A   Mostly Cloudy
11:30 AM 80.6 °F 82.3 °F 64.4 °F 58% 29.89 in 6.2 mi ESE 13.8 mph - N/A   Mostly Cloudy
12:00 PM 81 °F - 64 °F 46% 29.87 in 11 mi East 13.8 mph - -   Haze
12:00 PM 80.6 °F 82.3 °F 64.4 °F 58% 29.86 in 6.2 mi East 13.8 mph - N/A   Partly Cloudy
12:30 PM 80.6 °F 82.3 °F 64.4 °F 58% 29.83 in 6.2 mi ESE 15.0 mph - N/A   Partly Cloudy
1:00 PM 82 °F - 64 °F 44% 29.85 in - ESE 15.0 mph - -  
1:00 PM 82.4 °F 83.9 °F 64.4 °F 54% 29.83 in 6.2 mi ESE 15.0 mph - N/A   Partly Cloudy
1:30 PM 82.4 °F 83.9 °F 64.4 °F 54% 29.83 in 6.2 mi ESE 13.8 mph - N/A   Scattered Clouds
2:00 PM 80.6 °F 82.3 °F 64.4 °F 58% 29.83 in 6.2 mi ESE 13.8 mph - N/A   Partly Cloudy
2:30 PM 80.6 °F 82.3 °F 64.4 °F 58% 29.83 in 6.2 mi ESE 15.0 mph - N/A   Partly Cloudy
3:00 PM 80 °F - 65 °F 51% 29.83 in 9 mi ESE 16.1 mph - -   Haze
3:00 PM 80.6 °F 82.3 °F 64.4 °F 58% 29.80 in 6.2 mi ESE 16.1 mph - N/A   Partly Cloudy
3:30 PM 78.8 °F - 64.4 °F 61% 29.80 in 6.2 mi ESE 13.8 mph - N/A   Partly Cloudy
4:00 PM 78 °F - 65 °F 56% 29.81 in - ESE 15.0 mph - -  
4:00 PM 78.8 °F - 64.4 °F 61% 29.80 in 6.2 mi ESE 15.0 mph - N/A   Partly Cloudy
4:30 PM 77.0 °F - 66.2 °F 69% 29.80 in 6.2 mi ESE 15.0 mph - N/A   Scattered Clouds
5:00 PM 77.0 °F - 66.2 °F 69% 29.80 in 6.2 mi ESE 15.0 mph - N/A   Mostly Cloudy
5:30 PM 75.2 °F - 66.2 °F 73% 29.80 in 6.2 mi ESE 15.0 mph - N/A   Mostly Cloudy
6:00 PM 76 °F - 66 °F 64% 29.82 in 11 mi ESE 12.7 mph - -   Partly Cloudy
6:00 PM 75.2 °F - 66.2 °F 73% 29.80 in 6.2 mi ESE 12.7 mph - N/A   Scattered Clouds
6:30 PM 75.2 °F - 66.2 °F 73% 29.83 in 6.2 mi ESE 11.5 mph - N/A   Mostly Cloudy
7:00 PM 76 °F - 67 °F 65% 29.84 in - ESE 11.5 mph - -  
7:00 PM 77.0 °F - 66.2 °F 69% 29.83 in 6.2 mi ESE 11.5 mph - N/A   Mostly Cloudy
7:30 PM 77.0 °F - 68.0 °F 74% 29.86 in 6.2 mi ESE 10.4 mph - N/A   Mostly Cloudy
8:00 PM 77.0 °F - 68.0 °F 74% 29.86 in 6.2 mi ESE 11.5 mph - N/A   Mostly Cloudy
8:30 PM 75.2 °F - 68.0 °F 78% 29.86 in 6.2 mi SE 10.4 mph - N/A Rain Light Rain Showers
9:00 PM 76 °F - 67 °F 68% 29.87 in 10 mi SE 10.4 mph - - Rain Light Rain Showers
9:00 PM 75.2 °F - 68.0 °F 78% 29.86 in 6.2 mi SE 10.4 mph - N/A   Mostly Cloudy
9:30 PM 75.2 °F - 68.0 °F 78% 29.86 in 6.2 mi ESE 11.5 mph - N/A   Overcast
10:00 PM 76 °F - 68 °F 69% 29.88 in - SE 9.2 mph - -  
10:00 PM 75.2 °F - 68.0 °F 78% 29.86 in 6.2 mi SE 9.2 mph - N/A   Overcast
10:30 PM 75.2 °F - 68.0 °F 78% 29.86 in 6.2 mi SE 9.2 mph - N/A   Mostly Cloudy
11:00 PM 75.2 °F - 68.0 °F 78% 29.86 in 6.2 mi SE 8.1 mph - N/A   Mostly Cloudy
11:30 PM 75.2 °F - 68.0 °F 78% 29.86 in 6.2 mi SE 9.2 mph - N/A Rain Light Rain Showers